Location: Albany
(35.0000°S, 118.0000°E)
Time: 15:07:47
(UTC-04:00)

Vanguard 3 - Visible Passes

Search period start: 24 June 2017 00:00
Search period end: 04 July 2017 00:00
Orbit: 507 x 3266 km, 33.4° (Epoch: 23 June)

Date Brightness Start Highest point End Pass type
(mag) Time Alt. Az. Time Alt. Az. Time Alt. Az.
24 Jun 6.4 17:45:52 34° WNW 17:47:17 65° N 17:51:23 10° E visible
25 Jun 8.8 16:36:31 20° E 16:36:31 20° E 16:37:47 10° E visible
25 Jun 6.6 18:41:40 10° W 18:45:21 69° N 18:50:00 10° E visible
26 Jun 6.2 17:31:43 59° NW 17:32:14 69° N 17:36:07 10° E visible
27 Jun 9.3 16:22:18 13° E 16:22:18 13° E 16:22:46 10° E visible
27 Jun 6.5 18:26:55 12° W 18:30:18 64° N 18:34:33 10° ENE visible
28 Jun 6.4 17:17:29 66° NE 17:17:29 66° NE 17:20:56 10° E visible
29 Jun 6.6 18:12:39 18° W 18:15:14 56° N 18:19:11 10° ENE visible
30 Jun 7.3 17:03:12 44° ENE 17:03:12 44° ENE 17:05:50 10° E visible
01 Jul 6.7 17:58:20 25° WNW 18:00:10 48° NNW 18:03:52 10° ENE visible
02 Jul 8.1 16:48:52 29° ENE 16:48:52 29° ENE 16:50:46 10° ENE visible
03 Jul 7.0 17:44:01 33° WNW 17:45:04 41° NNW 17:48:35 10° NE visible
